Date String (YYYY-MM-DD hh:mm:ss) UTC,Instrument flags,absolute air pressure of the measurement (hPa),sample flow rate (lpm),inlet stack bypass flow (lpm),air temperature of the measurement (°C),ambient temperature measured by the external sensor (°C),aerosol sample conditioner tube jacket temperature (°C),OPC LED temperature (°C),internal box temperature (°C),relative humidity of the measurement (%),span deviation,mass concentration of particles derived from Lorenz-Mie calculation of OPC scattering (μg/m³),mass concentration of particles derived from Lorenz-Mie calculation of OPC scattering (μg/m³),mass concentration of particles derived from Lorenz-Mie calculation of OPC scattering (μg/m³)
DateTimeUTC,F1_M11,P_M11,Q1_M11,Q2_M11,T1_M11,T2_M11,T3_M11,T4_M11,T5_M11,U1_M11,ZSPAN_M11,X0_M11,X2_M11,X1_M11
2024-01-14 07:00:00,SystemResetWarning,0823.1,5.01,000.00,019.0,018.2,000.0,027.4,020.5,3.6,0003.5,0008.78,0004.85,0004.46
2024-01-14 07:01:00,SystemResetWarning,0822.8,5.01,000.00,019.1,019.0,000.0,027.4,020.9,3.5,0003.4,0008.68,0004.84,0004.48
2024-01-14 07:02:00,SystemResetWarning,0822.7,4.99,000.00,019.2,019.4,000.0,027.4,020.9,3.5,0003.7,0008.64,0004.87,0004.50
2024-01-14 07:03:00,SystemResetWarning,0822.8,4.99,000.00,019.2,019.2,000.0,027.4,020.5,3.5,0004.0,0008.64,0004.89,0004.50
2024-01-14 07:04:00,SystemResetWarning,0822.7,5.02,000.00,019.1,018.9,000.0,027.3,020.2,3.5,0004.4,0008.66,0004.89,0004.47
2024-01-14 07:05:00,SystemResetWarning,0822.8,5.01,000.00,019.0,018.6,000.0,027.3,020.0,3.5,0004.1,0008.66,0004.88,0004.44
2024-01-14 07:06:00,SystemResetWarning,0822.9,4.99,000.00,019.0,018.4,000.0,027.3,020.0,3.5,0003.5,0008.32,0004.86,0004.43
2024-01-14 07:07:00,SystemResetWarning,0823.0,4.99,000.00,018.9,018.2,000.0,027.4,020.0,3.5,0003.6,0008.35,0004.86,0004.40
2024-01-14 07:08:00,SystemResetWarning,0822.6,5.00,000.00,018.9,018.0,000.0,027.4,020.0,3.5,0003.7,0008.35,0004.84,0004.38
2024-01-14 07:09:00,SystemResetWarning,0822.6,5.01,000.00,018.9,017.9,000.0,027.4,020.1,3.5,0003.8,0008.55,0004.85,0004.35
2024-01-14 07:10:00,SystemResetWarning,0822.9,5.01,000.00,019.0,018.2,000.0,027.4,020.5,3.5,0003.5,0008.56,0004.88,0004.34
2024-01-14 07:11:00,SystemResetWarning,0822.7,5.01,000.00,019.1,018.9,000.0,027.4,020.9,3.5,0003.3,0009.05,0004.85,0004.34
2024-01-14 07:12:00,SystemResetWarning,0822.7,4.99,000.00,019.2,019.3,000.0,027.4,021.0,3.5,0003.4,0009.07,0004.83,0004.33
2024-01-14 07:13:00,SystemResetWarning,0822.9,4.99,000.00,019.2,019.2,000.0,027.4,020.6,3.5,0002.7,0009.13,0004.83,0004.31
2024-01-14 07:14:00,SystemResetWarning,0822.9,5.00,000.00,019.2,018.9,000.0,027.4,020.3,3.5,0000.0,0009.09,0004.81,0004.31
2024-01-14 07:15:00,SystemResetWarning,0822.7,5.01,000.00,019.1,018.7,000.0,027.4,020.1,3.5,0000.0,0009.06,0004.78,0004.30
2024-01-14 07:16:00,SystemResetWarning,0822.6,5.01,000.00,019.0,018.5,000.0,027.4,020.0,3.5,0000.5,0009.04,0004.77,0004.31
2024-01-14 07:17:00,SystemResetWarning,0822.7,5.00,000.00,019.0,018.3,000.0,027.4,020.0,3.5,0004.6,0009.12,0004.80,0004.32
2024-01-14 07:18:00,SystemResetWarning,0822.8,4.98,000.00,019.0,018.1,000.0,027.4,020.0,3.5,0004.0,0009.15,0004.81,0004.30
2024-01-14 07:19:00,SystemResetWarning,0822.7,5.00,000.00,018.9,017.9,000.0,027.4,020.0,3.5,0004.9,0009.11,0004.79,0004.29
2024-01-14 07:20:00,SystemResetWarning,0822.6,5.01,000.00,019.0,018.2,000.0,027.4,020.4,3.5,0004.9,0009.15,0004.76,0004.28
2024-01-14 07:21:00,SystemResetWarning,0822.7,5.01,000.00,019.1,018.9,000.0,027.4,020.9,3.5,0004.8,0009.31,0004.70,0004.25
2024-01-14 07:22:00,SystemResetWarning,0822.7,5.00,000.00,019.2,019.1,000.0,027.4,020.7,3.5,0004.4,0009.16,0004.66,0004.21
2024-01-14 07:23:00,SystemResetWarning,0822.7,4.99,000.00,019.1,018.9,000.0,027.4,020.4,3.5,0004.2,0009.13,0004.62,0004.16
2024-01-14 07:24:00,SystemResetWarning,0822.7,5.00,000.00,019.1,018.7,000.0,027.3,020.1,3.5,0004.1,0009.22,0004.59,0004.11
2024-01-14 07:25:00,SystemResetWarning,0822.7,5.01,000.00,019.0,018.5,000.0,027.3,020.0,3.5,0003.8,0009.25,0004.53,0004.06
2024-01-14 07:26:00,SystemResetWarning,0822.7,5.01,000.00,019.0,018.2,000.0,027.4,020.0,3.5,0003.9,0009.21,0004.49,0004.02
2024-01-14 07:27:00,SystemResetWarning,0822.5,4.99,000.00,019.0,018.1,000.0,027.4,020.0,3.5,0003.6,0009.23,0004.47,0003.99
2024-01-14 07:28:00,SystemResetWarning,0822.8,4.99,000.00,018.9,017.9,000.0,027.4,020.0,3.5,0003.7,0009.14,0004.43,0003.95
2024-01-14 07:29:00,SystemResetWarning,0822.7,5.01,000.00,019.0,018.1,000.0,027.4,020.4,3.5,0003.5,0009.34,0004.38,0003.92
2024-01-14 07:30:00,SystemResetWarning,0822.6,5.02,000.00,019.1,018.8,000.0,027.4,020.8,3.5,0003.1,0009.46,0004.36,0003.89
2024-01-14 07:31:00,SystemResetWarning,0822.6,4.99,000.00,019.2,019.1,000.0,027.4,020.7,3.5,0002.8,0009.43,0004.37,0003.88
2024-01-14 07:32:00,SystemResetWarning,0822.8,4.99,000.00,019.1,018.9,000.0,027.4,020.4,3.5,0003.3,0008.83,0004.34,0003.86
2024-01-14 07:33:00,SystemResetWarning,0822.8,5.01,000.00,019.1,018.7,000.0,027.3,020.1,3.5,0003.7,0008.13,0004.33,0003.84
2024-01-14 07:34:00,SystemResetWarning,0822.7,5.00,000.00,019.0,018.5,000.0,027.3,020.0,3.5,0003.5,0008.07,0004.30,0003.84
2024-01-14 07:35:00,SystemResetWarning,0822.8,4.99,000.00,019.0,018.3,000.0,027.3,020.0,3.5,0002.6,0007.90,0004.28,0003.84
2024-01-14 07:36:00,SystemResetWarning,0822.6,5.00,000.00,018.9,018.1,000.0,027.4,020.0,3.6,0000.1,0007.71,0004.26,0003.86
2024-01-14 07:37:00,SystemResetWarning,0822.6,5.00,000.00,018.9,018.0,000.0,027.4,020.0,3.6,0000.7,0007.69,0004.27,0003.87
2024-01-14 07:38:00,SystemResetWarning,0822.8,5.01,000.00,019.0,018.2,000.0,027.4,020.4,3.6,0003.7,0007.65,0004.29,0003.89
2024-01-14 07:39:00,SystemResetWarning,0822.8,5.01,000.00,019.1,018.8,000.0,027.4,020.8,3.6,0003.9,0007.62,0004.28,0003.91
2024-01-14 07:40:00,SystemResetWarning,0823.2,5.00,000.00,019.2,019.4,000.0,027.4,021.1,3.5,0003.9,0007.44,0004.30,0003.93
2024-01-14 07:41:00,SystemResetWarning,0823.2,4.99,000.00,019.3,019.4,000.0,027.4,020.7,3.5,0003.9,0007.28,0004.35,0003.96
2024-01-14 07:42:00,SystemResetWarning,0823.1,4.99,000.00,019.2,019.1,000.0,027.4,020.4,3.5,0000.9,0007.22,0004.36,0003.99
2024-01-14 07:43:00,SystemResetWarning,0823.3,5.01,000.00,019.1,018.9,000.0,027.4,020.2,3.6,0000.0,0007.20,0004.37,0004.03
2024-01-14 07:44:00,SystemResetWarning,0823.3,5.01,000.00,019.1,018.6,000.0,027.4,020.0,3.6,0000.0,0007.19,0004.40,0004.07
2024-01-14 07:45:00,SystemResetWarning,0822.9,5.00,000.00,019.0,018.4,000.0,027.4,020.0,3.6,0000.0,0007.22,0004.43,0004.11
2024-01-14 07:46:00,SystemResetWarning,0822.7,5.00,000.00,019.0,018.2,000.0,027.4,020.0,3.6,0000.5,0007.31,0004.47,0004.15
2024-01-14 07:47:00,SystemResetWarning,0822.7,5.00,000.00,019.0,018.0,000.0,027.4,020.0,3.6,0004.7,0007.36,0004.52,0004.20
2024-01-14 07:48:00,SystemResetWarning,0823.0,5.00,000.00,019.0,017.9,000.0,027.4,020.1,3.6,0001.3,0007.43,0004.55,0004.22
2024-01-14 07:49:00,SystemResetWarning,0823.3,5.01,000.00,019.0,018.3,000.0,027.4,020.5,3.6,0000.3,0007.44,0004.55,0004.22
2024-01-14 07:50:00,SystemResetWarning,0822.9,5.02,000.00,019.1,019.0,000.0,027.4,020.9,3.6,0005.1,0007.47,0004.56,0004.23
2024-01-14 07:51:00,SystemResetWarning,0822.7,4.99,000.00,019.2,019.1,000.0,027.4,020.6,3.6,0005.2,0007.52,0004.60,0004.25
2024-01-14 07:52:00,SystemResetWarning,0822.8,4.99,000.00,019.1,018.9,000.0,027.4,020.3,3.7,0002.9,0007.55,0004.61,0004.28
2024-01-14 07:53:00,SystemResetWarning,0822.7,5.02,000.00,019.1,018.7,000.0,027.3,020.1,3.7,0002.7,0007.54,0004.60,0004.27
2024-01-14 07:54:00,SystemResetWarning,0822.7,5.01,000.00,019.0,018.4,000.0,027.3,020.0,3.7,0005.2,0007.65,0004.64,0004.27
2024-01-14 07:55:00,SystemResetWarning,0822.8,5.00,000.00,019.0,018.2,000.0,027.4,020.0,3.7,0005.0,0007.61,0004.62,0004.25
2024-01-14 07:56:00,SystemResetWarning,0822.7,4.99,000.00,018.9,018.0,000.0,027.4,020.0,3.8,0004.7,0007.61,0004.62,0004.23
2024-01-14 07:57:00,SystemResetWarning,0822.8,5.00,000.00,018.9,017.9,000.0,027.4,020.1,3.8,0004.5,0007.61,0004.60,0004.21
2024-01-14 07:58:00,SystemResetWarning,0823.1,5.01,000.00,019.0,018.2,000.0,027.3,020.5,3.8,0002.8,0007.69,0004.61,0004.19
2024-01-14 07:59:00,SystemResetWarning,0822.9,5.01,000.00,019.1,018.9,000.0,027.3,020.9,3.8,0002.5,0007.70,0004.60,0004.16
